weather.gov     
National Weather Service

Regional Weather Roundup
NWS Homepage
This page is being discontinued on March 12, 2014.
The same data is available at this site. Please update your bookmarks.
Thank you, and we apologize for the inconvenience.
Please send an email to SR-SRH.Webmaster@noaa.gov with any concerns.


Current Version
Previous Version:    01  02  03  04  05  06  07  08  09  10  11  12  13  14  15  16  17  18  19  20  21  22  23  24  25  26  27  28  29  30  
   31  32  33  34  35  36  37  38  39  40  41  42  43  44  45  46  47  48  49  50  51  52  53  54  
[Printable]
887
ASUS44 KOUN 301710
RWROK

WEATHER ROUNDUP FOR OKLAHOMA
NATIONAL WEATHER SERVICE NORMAN OK
1200 PM CDT WED JUL 30 2014

NOTE: "FAIR" INDICATES FEW OR NO CLOUDS BELOW 12,000 FEET WITH NO
      SIGNIFICANT WEATHER AND/OR OBSTRUCTIONS TO VISIBILITY.

OKZ001>007-009>012-014-015-017-301800-
NORTHWEST OKLAHOMA AND THE PANHANDLE

CITY           SKY/WX    TMP DP  RH WIND       PRES   REMARKS
GAGE           LGT RAIN  68  66  93 S13       30.03F
ENID/WOODRING  LGT RAIN  68  68 100 SE8       30.04S FOG
$$

OKZ016-021>023-033>039-044-045-301800-
SOUTHWEST OKLAHOMA

CITY           SKY/WX    TMP DP  RH WIND       PRES   REMARKS
LAWTON/REGL      N/A     73  70  90 SE10      30.04
LAWTON/FT SILL LGT RAIN  73  72  94 SE10      30.03F
FREDERICK      CLOUDY    73  71  93 E13       30.00F
CLINTON        LGT RAIN  69  67  93 SE16      30.04F
HOBART         CLOUDY    70  68  93 SE12      30.04F
ALTUS AFB      PTSUNNY   71  71  99 SE14      30.03F
$$

OKZ018>020-024>031-301800-
CENTRAL OKLAHOMA

CITY           SKY/WX    TMP DP  RH WIND       PRES   REMARKS
OKLAHOMA CITY  RAIN      70  66  88 S12       30.05F FOG
OKC/WILEY POST HVY RAIN  70  66  88 S10       30.05F FOG
OKC/TINKER AFB LGT RAIN  69  67  93 S8        30.05F
STILLWATER     LGT RAIN  70  68  93 SE9       30.06F FOG
GUTHRIE        LGT RAIN  70  68  93 S7        30.06F FOG
$$

OKZ008-013-054>072-301800-
NORTHEAST OKLAHOMA

CITY           SKY/WX    TMP DP  RH WIND       PRES   REMARKS
TULSA          RAIN      70  70 100 CALM      30.08F FOG
TULSA/JONES    RAIN      72  70  94 SE5       30.09F FOG
PONCA CITY     LGT RAIN  67  65  93 E9        30.08F FOG
BARTLESVILLE   RAIN      70  69  97 W3        30.11F FOG
MUSKOGEE       RAIN      70  69  97 S7        30.12S FOG
$$

OKZ032-040>043-046>053-073>077-301800-
SOUTH CENTRAL/SOUTHEAST OKLAHOMA

CITY           SKY/WX    TMP DP  RH WIND       PRES   REMARKS
ARDMORE/DWNTWN PTSUNNY   70  68  94 SE6       30.07F
MCALESTER      LGT RAIN  72  70  93 VRB7      30.11S
$$





U.S. Dept. of Commerce
NOAA National Weather Service
1325 East West Highway
Silver Spring, MD 20910
E-mail: w-nws.webmaster@noaa.gov
Page last modified: May 16, 2007
NATIONAL WEATHER SERVICE: for Safety, for Work, for Fun - FOR LIFE